Location: L�beck
(53.8752°N, 10.6787°E)
Time: 03:03:54
(UTC+01:00)

ISS - Pass Details

Date: 14 November 2017
Orbit: 402 x 407 km, 51.6° (Epoch: 24 November)

Event Time Altitude Azimuth Distance (km) Brightness Sun altitude
Exits shadow 05:45:14 24° 211° (SSW) 890 -2.3 -17.1°
Maximum altitude 05:45:20 24° 208° (SSW) 889 -2.3 -17.1°
Drops below altitude 10° 05:48:01 10° 153° (SSE) 1,452 -0.5 -16.7°
Sets 05:50:19 0° 138° (SE) 2,309 0.8 -16.3°
